Погода в Арги-Паги

Россия / Сахалинская область     51°20′51″N   142°43′46″E
темп.,
°C
ветер,
м/с
пор.,
м/с
влажн.,
%
обл.,
%
осадки,
мм/ч
давл.,
гПа
погр.,
м
23 апреля, пт
пт2323:00+4ю388999 0.0 1021158
02:00+2ююз4118896 0.0 1021283
05:00+3ююз412755 0.0 1019308
08:00+4ююз4117399 0.0 1018300
11:00+9ююз4863100 0.0 1017352
14:00+15юз35515 0.0 1015809
17:00+9сз5765100 0.0 1018513
20:00+4ссв3591100 0.3 1020512
24 апреля, сб
сб2423:00+1ссв3699100 2.8 1022226
02:000ссв3798100 4.1 1021503
05:00−2ссв3693100 6.0 1021535
08:00−2св1387100 0.8 1020419
11:00−1ссв2373100 0.9 1019672
14:00+3ссз2458100 0.1 10161639
17:00+3сз345298 0.1 10151732
20:00+1в00731 0.0 101510
25 апреля, вс
вс2523:00−4ююз21885 0.0 101416
02:00−4ю23895 0.0 101363
05:00−4ю1291100 0.0 101347
08:00−2зюз0189100 0.1 1013163
11:00+2ссз2364100 0.1 10131220
14:00+4с4449100 0.4 10121662
17:00+2ссв466298 1.5 10141307
20:000с256752 0.4 1015181
26 апреля, пн
пн2623:00−5с11925 0.5 101712
02:00−5юз1192100 0.0 101611
05:00−5зюз019083 0.0 101716
08:00−2зюз11700 0.0 1017194
11:00+2с254215 0.0 10161918
14:00+4ссз3437100 0.0 10162527
17:00+4сз334198 0.0 10161862
20:00+1ссз116648 0.0 101714
27 апреля, вт
вт2723:00−2ю117450 0.0 101812
02:00−3ю24775 0.0 101984
05:00−3ю2790100 0.0 1018196
08:000ю3674100 0.0 1017246
11:00+6ююз465479 0.0 1016698
14:00+9ююз575356 0.0 10151029
17:00+10ю4653100 0.0 1014994
20:00+6ю3871100 0.0 1014289